Grand Junction, CO

3:09 AM MDT on September 22, 2019 (GMT -0600)
Walker

Weather History for KGJT - April, 2019

Change the Weather History Date:

Wednesday, April 10, 2019

  Actual Average Record
Temperature  
Mean Temperature 46 °F 50 °F  
Max Temperature 56 °F 63 °F 84 °F (1977)
Min Temperature 36 °F 36 °F 19 °F (1999)
Degree Days  
Heating Degree Days 19 15  
Month to date heating degree days 108 162  
Since 1 July heating degree days 5216 5194  
Cooling Degree Days 0 0  
Month to date cooling degree days 0 0  
Year to date cooling degree days 0 0  
Moisture  
Dew Point 32 °F    
Average Humidity 54    
Maximum Humidity 82    
Minimum Humidity 25    
Precipitation  
Precipitation 0.03 in 0.04 in 0.64 in (1945)
Month to date precipitation 0.04 0.33  
Year to date precipitation 3.77 2.37  
Snow  
Snow 0.00 in 0.00 in 2.50 in (1945)
Month to date snowfall 0.0 0.5  
Since 1 July snowfall 17.4 18.6  
Snow Depth 0.00 in    
Sea Level Pressure  
Sea Level Pressure 29.52 in    
Wind  
Wind Speed 15 mph (WNW)    
Max Wind Speed 30 mph    
Max Gust Speed 40 mph    
Visibility 10 miles    
Events Rain    
T = Trace of Precipitation, MM = Missing Value Source: NWS Daily Summary

Daily Weather History Graph

Daily Weather History Graph

Search for Another Location

Airport or City:

Astronomy

Apr. 10, 2019 Rise Set
Actual Time 6:45 AM MDT 7:46 PM MDT
Civil Twilight 6:17 AM MDT 8:13 PM MDT
Nautical Twilight 5:45 AM MDT 8:46 PM MDT
Astronomical Twilight 5:11 AM MDT 9:20 PM MDT
Moon 10:21 AM MDT (4/10) 12:19 AM MDT (4/10)
Length of Visible Light 13h 56m
Length of Day
13h 01m
Waxing Crescent, 28% of the Moon is Illuminated
Apr 10
Waxing Crescent
Apr 12
First Quarter
Apr 19
Full
Apr 26
Last Quarter
May 4
New

Hourly Weather History & Observations

Time (MDT) Temp. Windchill Dew Point Humidity Pressure Visibility Wind Dir Wind Speed Gust Speed Precip Events Conditions
12:53 AM 57.0 °F - 23.0 °F 27% 29.40 in 10.0 mi West 13.8 mph - N/A   Clear
1:53 AM 55.9 °F - 28.0 °F 34% 29.41 in 10.0 mi WNW 13.8 mph 24.2 mph N/A   Overcast
2:53 AM 51.1 °F - 30.0 °F 44% 29.40 in 10.0 mi WNW 9.2 mph - N/A   Mostly Cloudy
3:49 AM 51.8 °F - 30.2 °F 44% 29.60 in 10.0 mi West 23.0 mph 29.9 mph N/A   Overcast
3:53 AM 51.1 °F - 30.0 °F 44% 29.44 in 10.0 mi West 20.7 mph 29.9 mph N/A   Overcast
4:53 AM 45.0 °F 38.9 °F 32.0 °F 60% 29.43 in 10.0 mi WNW 12.7 mph - 0.00 in   Overcast
5:53 AM 44.1 °F 39.0 °F 35.1 °F 71% 29.44 in 10.0 mi WNW 9.2 mph - 0.00 in   Overcast
6:53 AM 41.0 °F 35.2 °F 37.9 °F 89% 29.43 in 10.0 mi NNE 9.2 mph - 0.01 in Rain Light Rain
7:53 AM 43.0 °F 40.3 °F 36.0 °F 76% 29.41 in 10.0 mi East 4.6 mph - 0.00 in   Mostly Cloudy
8:53 AM 42.8 °F 37.5 °F 37.4 °F 81% 29.41 in 10.0 mi NW 9.2 mph - N/A   Overcast
9:24 AM 42.1 °F 34.9 °F 37.0 °F 82% 29.54 in 4.0 mi WNW 13.8 mph - 0.00 in Rain Light Rain
9:53 AM 42.1 °F 35.2 °F 37.9 °F 85% 29.41 in 5.0 mi NNW 12.7 mph - 0.01 in   Overcast
10:00 AM 43.0 °F 36.8 °F 37.0 °F 80% 29.53 in 10.0 mi NNW 11.5 mph - N/A   Overcast
10:53 AM 46.0 °F 39.6 °F 37.0 °F 71% 29.39 in 10.0 mi NW 15.0 mph - N/A   Overcast
11:00 AM 45.0 °F 37.9 °F 35.1 °F 68% 29.53 in 10.0 mi NW 16.1 mph - N/A   Overcast
11:53 AM 46.4 °F 41.1 °F 37.4 °F 71% 29.41 in 10.0 mi West 11.5 mph - N/A   Mostly Cloudy
12:53 PM 48.0 °F - 37.9 °F 68% 29.42 in 10.0 mi WNW 8.1 mph - N/A   Overcast
1:53 PM 45.0 °F 36.4 °F 36.0 °F 71% 29.46 in 10.0 mi WNW 23.0 mph 34.5 mph 0.01 in   Overcast
2:53 PM 46.0 °F 37.6 °F 34.0 °F 63% 29.48 in 10.0 mi West 24.2 mph 34.5 mph 0.00 in   Overcast
3:53 PM 46.9 °F - 33.1 °F 59% 29.50 in 10.0 mi West 21.9 mph 38.0 mph N/A   Overcast
4:53 PM 48.0 °F - 30.9 °F 52% 29.53 in 10.0 mi WNW 26.5 mph 36.8 mph N/A   Overcast
5:53 PM 45.0 °F 35.8 °F 30.9 °F 58% 29.58 in 10.0 mi WNW 26.5 mph 34.5 mph N/A   Overcast
6:53 PM 43.0 °F 35.1 °F 30.0 °F 60% 29.64 in 10.0 mi WNW 17.3 mph - N/A   Overcast
7:53 PM 41.0 °F 33.1 °F 30.0 °F 65% 29.66 in 10.0 mi WNW 15.0 mph - N/A   Overcast
8:53 PM 41.0 °F 33.5 °F 28.0 °F 60% 29.70 in 10.0 mi WNW 13.8 mph - N/A   Scattered Clouds
9:53 PM 39.0 °F 31.4 °F 27.0 °F 62% 29.75 in 10.0 mi WNW 12.7 mph - N/A   Mostly Cloudy
10:53 PM 37.0 °F 30.4 °F 27.0 °F 67% 29.76 in 10.0 mi WNW 9.2 mph - N/A   Clear
11:53 PM 37.9 °F 30.0 °F 21.0 °F 51% 29.78 in 10.0 mi NNW 12.7 mph - N/A   Mostly Cloudy